Regional Weather Roundup
Issued by NWS Sioux Falls, SD

Home | Current Version | Previous Version | Graphics & Text | Print | Product List | Glossary On
Versions: 1 2 3 4 5 6 7 8 9 10 11 12 13 14 15 16 17 18 19 20 21 22 23 24 25 26 27 28 29 30 31 32 33 34 35 36 37 38 39 40 41 42 43 44 45 46 47 48 49 50
000
ASUS43 KFSD 202302
RWRFSD

WEATHER ROUNDUP FOR SE SOUTH DAKOTA/SW MINNESOTA/NW IOWA
NATIONAL WEATHER SERVICE SIOUX FALLS SD
600 PM CDT MON OCT 20 2014

NOTE: "FAIR" INDICATES FEW OR NO CLOUDS BELOW 12,000 FEET WITH NO
SIGNIFICANT WEATHER AND OR OBSTRUCTIONS TO VISIBILITY.


SDZ038>040-050-052>070-210000-
SOUTHEAST SOUTH DAKOTA

CITY           SKY/WX    TMP DP  RH WIND       PRES   REMARKS
CHAMBERLAIN    CLEAR     70  38  31 SE8       29.99F
HURON          CLEAR     69  32  25 SE6       30.01F
MADISON        FAIR      64  37  36 NW5       30.04F
MITCHELL       CLEAR     69  36  29 E6        30.03S
SIOUX FALLS    CLEAR     67  37  33 W5        30.03F
WINNER         FAIR      75  39  27 SE9       29.99F
YANKTON        CLEAR     68  37  32 CALM      30.04S
$$

MNZ071-072-080-081-089-090-097-098-210000-
SOUTHWEST MINNESOTA

CITY           SKY/WX    TMP DP  RH WIND       PRES   REMARKS
FAIRMONT       CLEAR     64  34  32 NW8       30.02S
JACKSON        CLEAR     63  36  36 N6        30.03S
LUVERNE        CLEAR     68  32  26 N3        30.04S
MARSHALL       CLEAR     64  37  36 N8        30.02S
MONTEVIDEO     CLEAR     64  39  39 NE6       30.03S
PIPESTONE      CLEAR     68  36  30 N3        30.04S
REDWOOD FALLS  CLEAR     65  39  38 N6        30.02R
TRACY          CLEAR     65  37  35 NW6       30.03S
WINDOM         CLEAR     64  37  36 NW6       30.03S
WORTHINGTON    CLEAR     64  36  34 N7        30.04S
$$

IAZ001>003-012>014-020>022-031-032-NEZ013-014-SDZ071-210000-
NORTHWEST IOWA

CITY           SKY/WX    TMP DP  RH WIND       PRES   REMARKS
CHEROKEE       CLEAR     65  40  39 NW3       30.03S
DENISON        CLEAR     66  39  37 NW7       30.03R
ESTHERVILLE    CLEAR     64  38  38 N8        30.02S
LE MARS        CLEAR     68  39  34 NW6       30.04S
ORANGE CITY    CLEAR     66  39  37 NW6       30.04S
SHELDON        CLEAR     66  37  34 N6        30.02F
SIOUX CITY     CLEAR     70  39  32 NW6       30.04S
SPENCER        CLEAR     65  40  39 N8        30.03S
STORM LAKE     CLEAR     64  37  36 N7        30.04S
$$

ABBREVIATIONS USED IN REMARKS
   TC - TEMPERATURE IN CELSIUS
  WCI - WIND CHILL INDEX
   HX - HEAT INDEX
  VSB - VISIBILITY



USA.gov is the U.S. government's official web portal to all federal, state and local government web resources and services.